dnevnik.si alexa rank chart, dnevnik.si alexa rank daily changes

dnevnik.si alexa rank chart, dnevnik.si alexa rank daily changes

dnevnik.si
Actual rank:
53 578

RANK HISTORY

Date Rank Diff
2018/01/21 53 578 -349
2018/01/20 53 927 -401
2018/01/19 54 328 -478
2018/01/18 54 806 +679
2018/01/17 54 127 +144
2018/01/16 53 983 +183
2018/01/15 53 800 +215
2018/01/14 53 585 +364
2018/01/13 53 221 +214
2018/01/12 53 007 +481
2018/01/11 52 526 +59
2018/01/10 52 467 +346
2018/01/09 52 121 -252
2018/01/08 52 373 +546
2018/01/07 51 827 +295
2018/01/06 51 532 +285
2018/01/05 51 247 -127
2018/01/04 51 374 +59
2018/01/03 51 315 +653
2018/01/02 50 662 +503
2018/01/01 50 159 -71
2017/12/31 50 230 +37
2017/12/30 50 193 -410
2017/12/29 50 603 -189
2017/12/28 50 792 +257
2017/12/27 50 535 +110
2017/12/26 50 425 +223
2017/12/25 50 202 +179
2017/12/24 50 023 -304
2017/12/23 50 327 -474
2017/12/22 50 801 -148
2017/12/21 50 949 -261
2017/12/20 51 210 -154
2017/12/19 51 364 -309
2017/12/18 51 673 +82
2017/12/17 51 591 -330
2017/12/16 51 921 -271
2017/12/15 52 192 -451
2017/12/14 52 643 -1 174
2017/12/13 53 817 -957
2017/12/12 54 774 -1 225
2017/12/11 55 999 -101
2017/12/10 56 100 +19
2017/12/09 56 081 -255
2017/12/08 56 336 -1 036
2017/12/07 57 372 -659
2017/12/06 58 031 +222
2017/12/05 57 809 -454
2017/12/04 58 263 +379
2017/12/03 57 884 -656
2017/12/02 58 540 -199
2017/12/01 58 739 -88
2017/11/30 58 827 +401
2017/11/29 58 426 +42
2017/11/28 58 384 +121
2017/11/27 58 263 -5
2017/11/26 58 268 -364
2017/11/25 58 632 +548
2017/11/24 58 084 +365
2017/11/23 57 719 +74
2017/11/22 57 645

WIDGET FOR YOUR SITE

DOMAINS WITH THE NEAREST RANK

Domain Rank
puchd.ac.in 53 573
myegy.online 53 574
5euros.com 53 575
smrj.go.jp 53 576
instamed.com 53 577
dnevnik.si 53 578
bpm-power.com 53 579
blizzardwatch.com 53 580
elsaltodiario.com 53 581
sexhotpictures.net 53 582
myfone.com.tw 53 583

DOMAINS WITH THE NEAREST RANK BY TLD .si

Domain Rank
zadovoljna.si 44 792
telekom.si 47 188
dnevnik.si 53 578
arnes.si 58 439
delavska-hranilnica.si 59 032
bigbang.si 60 325
nkbm.si 60 925
um.si 61 357